Data supplied by UK-AIR on 30/3/2009
All Data GMT hour ending 
Status: R =Ratified P=Provisional,P*=As supplied
,,Ladybower,,,,,,,,,,,,,,,,,,,,,,,
Date,time,"Nitric oxide",status,unit,"Nitrogen dioxide",status,unit,"Nitrogen oxides as nitrogen dioxide",status,unit,"Ozone",status,unit,"Sulphur dioxide",status,unit
 
01-01-2008,01:00,,,,,,,,,,,,,,,
01-01-2008,02:00,,,,,,,,,,12,R,ugm-3,,,
01-01-2008,03:00,,,,,,,,,,22,R,ugm-3,,,
01-01-2008,04:00,,,,,,,,,,36,R,ugm-3,,,
01-01-2008,05:00,,,,,,,,,,44,R,ugm-3,,,
01-01-2008,06:00,,,,,,,,,,36,R,ugm-3,,,
01-01-2008,07:00,,,,,,,,,,40,R,ugm-3,,,
01-01-2008,08:00,,,,,,,,,,38,R,ugm-3,,,
01-01-2008,09:00,,,,,,,,,,32,R,ugm-3,,,
01-01-2008,10:00,,,,,,,,,,32,R,ugm-3,,,
01-01-2008,11:00,,,,,,,,,,28,R,ugm-3,,,
01-01-2008,12:00,,,,,,,,,,28,R,ugm-3,,,
01-01-2008,13:00,,,,,,,,,,28,R,ugm-3,,,
01-01-2008,14:00,,,,,,,,,,24,R,ugm-3,,,
01-01-2008,15:00,,,,,,,,,,22,R,ugm-3,,,
01-01-2008,16:00,,,,,,,,,,24,R,ugm-3,,,
01-01-2008,17:00,,,,,,,,,,22,R,ugm-3,,,
01-01-2008,18:00,,,,,,,,,,22,R,ugm-3,,,
01-01-2008,19:00,,,,,,,,,,20,R,ugm-3,,,
01-01-2008,20:00,,,,,,,,,,28,R,ugm-3,,,
01-01-2008,21:00,,,,,,,,,,32,R,ugm-3,,,
01-01-2008,22:00,,,,,,,,,,30,R,ugm-3,,,
01-01-2008,23:00,,,,,,,,,,32,R,ugm-3,,,
01-01-2008,24:00,,,,,,,,,,36,R,ugm-3,,,
02-01-2008,01:00,,,,,,,,,,34,R,ugm-3,,,
02-01-2008,02:00,,,,,,,,,,32,R,ugm-3,,,
02-01-2008,03:00,,,,,,,,,,36,R,ugm-3,,,
02-01-2008,04:00,,,,,,,,,,32,R,ugm-3,,,
02-01-2008,05:00,,,,,,,,,,14,R,ugm-3,,,
02-01-2008,06:00,,,,,,,,,,16,R,ugm-3,,,
02-01-2008,07:00,,,,,,,,,,30,R,ugm-3,,,
02-01-2008,08:00,,,,,,,,,,16,R,ugm-3,,,
02-01-2008,09:00,,,,,,,,,,20,R,ugm-3,,,
02-01-2008,10:00,,,,,,,,,,22,R,ugm-3,,,
02-01-2008,11:00,,,,,,,,,,22,R,ugm-3,,,
02-01-2008,12:00,,,,,,,,,,26,R,ugm-3,,,
02-01-2008,13:00,,,,,,,,,,28,R,ugm-3,,,
02-01-2008,14:00,,,,,,,,,,32,R,ugm-3,,,
02-01-2008,15:00,,,,,,,,,,36,R,ugm-3,,,
02-01-2008,16:00,,,,,,,,,,40,R,ugm-3,,,
02-01-2008,17:00,,,,,,,,,,38,R,ugm-3,,,
02-01-2008,18:00,,,,,,,,,,38,R,ugm-3,,,
02-01-2008,19:00,,,,,,,,,,50,R,ugm-3,,,
02-01-2008,20:00,,,,,,,,,,52,R,ugm-3,,,
02-01-2008,21:00,,,,,,,,,,52,R,ugm-3,,,
02-01-2008,22:00,,,,,,,,,,50,R,ugm-3,,,
02-01-2008,23:00,,,,,,,,,,50,R,ugm-3,,,
02-01-2008,24:00,,,,,,,,,,48,R,ugm-3,,,
03-01-2008,01:00,,,,,,,,,,50,R,ugm-3,,,
03-01-2008,02:00,,,,,,,,,,48,R,ugm-3,,,
03-01-2008,03:00,,,,,,,,,,50,R,ugm-3,,,
03-01-2008,04:00,,,,,,,,,,40,R,ugm-3,,,
03-01-2008,05:00,,,,,,,,,,48,R,ugm-3,,,
03-01-2008,06:00,,,,,,,,,,50,R,ugm-3,,,
03-01-2008,07:00,,,,,,,,,,44,R,ugm-3,,,
03-01-2008,08:00,,,,,,,,,,36,R,ugm-3,,,
03-01-2008,09:00,,,,,,,,,,34,R,ugm-3,,,
03-01-2008,10:00,,,,,,,,,,36,R,ugm-3,,,
03-01-2008,11:00,,,,,,,,,,30,R,ugm-3,,,
03-01-2008,12:00,,,,,,,,,,,,,,,
03-01-2008,13:00,,,,,,,,,,,,,,,
03-01-2008,14:00,,,,,,,,,,34,R,ugm-3,,,
03-01-2008,15:00,,,,,,,,,,30,R,ugm-3,,,
03-01-2008,16:00,,,,,,,,,,30,R,ugm-3,,,
03-01-2008,17:00,,,,,,,,,,28,R,ugm-3,,,
03-01-2008,18:00,,,,,,,,,,28,R,ugm-3,,,
03-01-2008,19:00,,,,,,,,,,26,R,ugm-3,,,
03-01-2008,20:00,,,,,,,,,,28,R,ugm-3,,,
03-01-2008,21:00,,,,,,,,,,26,R,ugm-3,,,
03-01-2008,22:00,,,,,,,,,,24,R,ugm-3,,,
03-01-2008,23:00,,,,,,,,,,18,R,ugm-3,,,
03-01-2008,24:00,,,,,,,,,,16,R,ugm-3,,,
04-01-2008,01:00,,,,,,,,,,12,R,ugm-3,,,
04-01-2008,02:00,,,,,,,,,,8,R,ugm-3,,,
04-01-2008,03:00,,,,,,,,,,14,R,ugm-3,,,
04-01-2008,04:00,,,,,,,,,,14,R,ugm-3,,,
04-01-2008,05:00,,,,,,,,,,6,R,ugm-3,,,
04-01-2008,06:00,,,,,,,,,,8,R,ugm-3,,,
04-01-2008,07:00,,,,,,,,,,8,R,ugm-3,,,
04-01-2008,08:00,,,,,,,,,,4,R,ugm-3,,,
04-01-2008,09:00,,,,,,,,,,0,R,ugm-3,,,
04-01-2008,10:00,,,,,,,,,,2,R,ugm-3,,,
04-01-2008,11:00,,,,,,,,,,6,R,ugm-3,,,
04-01-2008,12:00,,,,,,,,,,6,R,ugm-3,,,
04-01-2008,13:00,,,,,,,,,,4,R,ugm-3,,,
04-01-2008,14:00,,,,,,,,,,12,R,ugm-3,,,
04-01-2008,15:00,,,,,,,,,,18,R,ugm-3,,,
04-01-2008,16:00,,,,,,,,,,14,R,ugm-3,,,
04-01-2008,17:00,,,,,,,,,,,,,,,
04-01-2008,18:00,,,,,,,,,,2,R,ugm-3,,,
04-01-2008,19:00,,,,,,,,,,18,R,ugm-3,,,
04-01-2008,20:00,,,,,,,,,,46,R,ugm-3,,,
04-01-2008,21:00,,,,,,,,,,48,R,ugm-3,,,
04-01-2008,22:00,,,,,,,,,,58,R,ugm-3,,,
04-01-2008,23:00,,,,,,,,,,68,R,ugm-3,,,
04-01-2008,24:00,,,,,,,,,,72,R,ugm-3,,,
05-01-2008,01:00,,,,,,,,,,68,R,ugm-3,,,
05-01-2008,02:00,,,,,,,,,,66,R,ugm-3,,,
05-01-2008,03:00,,,,,,,,,,68,R,ugm-3,,,
05-01-2008,04:00,,,,,,,,,,72,R,ugm-3,,,
05-01-2008,05:00,,,,,,,,,,72,R,ugm-3,,,
05-01-2008,06:00,,,,,,,,,,72,R,ugm-3,,,
05-01-2008,07:00,,,,,,,,,,72,R,ugm-3,,,
05-01-2008,08:00,,,,,,,,,,72,R,ugm-3,,,
05-01-2008,09:00,,,,,,,,,,70,R,ugm-3,,,
05-01-2008,10:00,,,,,,,,,,68,R,ugm-3,,,
05-01-2008,11:00,,,,,,,,,,68,R,ugm-3,,,
05-01-2008,12:00,,,,,,,,,,68,R,ugm-3,,,
05-01-2008,13:00,,,,,,,,,,68,R,ugm-3,,,
05-01-2008,14:00,,,,,,,,,,66,R,ugm-3,,,
05-01-2008,15:00,,,,,,,,,,68,R,ugm-3,,,
05-01-2008,16:00,,,,,,,,,,70,R,ugm-3,,,
05-01-2008,17:00,,,,,,,,,,68,R,ugm-3,,,
05-01-2008,18:00,,,,,,,,,,68,R,ugm-3,,,
05-01-2008,19:00,,,,,,,,,,64,R,ugm-3,,,
05-01-2008,20:00,,,,,,,,,,64,R,ugm-3,,,
05-01-2008,21:00,,,,,,,,,,64,R,ugm-3,,,
05-01-2008,22:00,,,,,,,,,,60,R,ugm-3,,,
05-01-2008,23:00,,,,,,,,,,60,R,ugm-3,,,
05-01-2008,24:00,,,,,,,,,,58,R,ugm-3,,,
06-01-2008,01:00,,,,,,,,,,56,R,ugm-3,,,
06-01-2008,02:00,,,,,,,,,,58,R,ugm-3,,,
06-01-2008,03:00,,,,,,,,,,58,R,ugm-3,,,
06-01-2008,04:00,,,,,,,,,,56,R,ugm-3,,,
06-01-2008,05:00,,,,,,,,,,58,R,ugm-3,,,
06-01-2008,06:00,,,,,,,,,,58,R,ugm-3,,,
06-01-2008,07:00,,,,,,,,,,58,R,ugm-3,,,
06-01-2008,08:00,,,,,,,,,,58,R,ugm-3,,,
06-01-2008,09:00,,,,,,,,,,56,R,ugm-3,,,
06-01-2008,10:00,,,,,,,,,,58,R,ugm-3,,,
06-01-2008,11:00,,,,,,,,,,62,R,ugm-3,,,
06-01-2008,12:00,,,,,,,,,,64,R,ugm-3,,,
06-01-2008,13:00,,,,,,,,,,62,R,ugm-3,,,
06-01-2008,14:00,,,,,,,,,,62,R,ugm-3,,,
06-01-2008,15:00,,,,,,,,,,64,R,ugm-3,,,
06-01-2008,16:00,,,,,,,,,,56,R,ugm-3,,,
06-01-2008,17:00,,,,,,,,,,44,R,ugm-3,,,
06-01-2008,18:00,,,,,,,,,,32,R,ugm-3,,,
06-01-2008,19:00,,,,,,,,,,40,R,ugm-3,,,
06-01-2008,20:00,,,,,,,,,,40,R,ugm-3,,,
06-01-2008,21:00,,,,,,,,,,40,R,ugm-3,,,
06-01-2008,22:00,,,,,,,,,,42,R,ugm-3,,,
06-01-2008,23:00,,,,,,,,,,44,R,ugm-3,,,
06-01-2008,24:00,,,,,,,,,,46,R,ugm-3,,,
07-01-2008,01:00,,,,,,,,,,68,R,ugm-3,,,
07-01-2008,02:00,,,,,,,,,,72,R,ugm-3,,,
07-01-2008,03:00,,,,,,,,,,72,R,ugm-3,,,
07-01-2008,04:00,,,,,,,,,,72,R,ugm-3,,,
07-01-2008,05:00,,,,,,,,,,72,R,ugm-3,,,
07-01-2008,06:00,,,,,,,,,,72,R,ugm-3,,,
07-01-2008,07:00,,,,,,,,,,64,R,ugm-3,,,
07-01-2008,08:00,,,,,,,,,,58,R,ugm-3,,,
07-01-2008,09:00,,,,,,,,,,56,R,ugm-3,,,
07-01-2008,10:00,,,,,,,,,,60,R,ugm-3,,,
07-01-2008,11:00,,,,,,,,,,64,R,ugm-3,,,
07-01-2008,12:00,,,,,,,,,,64,R,ugm-3,,,
07-01-2008,13:00,,,,,,,,,,62,R,ugm-3,,,
07-01-2008,14:00,,,,,,,,,,60,R,ugm-3,,,
07-01-2008,15:00,,,,,,,,,,58,R,ugm-3,,,
07-01-2008,16:00,,,,,,,,,,56,R,ugm-3,,,
07-01-2008,17:00,,,,,,,,,,54,R,ugm-3,,,
07-01-2008,18:00,,,,,,,,,,48,R,ugm-3,,,
07-01-2008,19:00,,,,,,,,,,48,R,ugm-3,,,
07-01-2008,20:00,,,,,,,,,,54,R,ugm-3,,,
07-01-2008,21:00,,,,,,,,,,60,R,ugm-3,,,
07-01-2008,22:00,,,,,,,,,,64,R,ugm-3,,,
07-01-2008,23:00,,,,,,,,,,66,R,ugm-3,,,
07-01-2008,24:00,,,,,,,,,,66,R,ugm-3,,,
08-01-2008,01:00,,,,,,,,,,66,R,ugm-3,,,
08-01-2008,02:00,,,,,,,,,,66,R,ugm-3,,,
08-01-2008,03:00,,,,,,,,,,68,R,ugm-3,,,
08-01-2008,04:00,,,,,,,,,,68,R,ugm-3,,,
08-01-2008,05:00,,,,,,,,,,66,R,ugm-3,,,
08-01-2008,06:00,,,,,,,,,,64,R,ugm-3,,,
08-01-2008,07:00,,,,,,,,,,60,R,ugm-3,,,
08-01-2008,08:00,,,,,,,,,,60,R,ugm-3,,,
08-01-2008,09:00,,,,,,,,,,56,R,ugm-3,,,
08-01-2008,10:00,,,,,,,,,,50,R,ugm-3,,,
08-01-2008,11:00,,,,,,,,,,34,R,ugm-3,,,
08-01-2008,12:00,,,,,,,,,,42,R,ugm-3,,,
08-01-2008,13:00,,,,,,,,,,46,R,ugm-3,,,
08-01-2008,14:00,,,,,,,,,,60,R,ugm-3,,,
08-01-2008,15:00,,,,,,,,,,62,R,ugm-3,,,
08-01-2008,16:00,,,,,,,,,,66,R,ugm-3,,,
08-01-2008,17:00,,,,,,,,,,62,R,ugm-3,,,
08-01-2008,18:00,,,,,,,,,,60,R,ugm-3,,,
08-01-2008,19:00,,,,,,,,,,60,R,ugm-3,,,
08-01-2008,20:00,,,,,,,,,,60,R,ugm-3,,,
08-01-2008,21:00,,,,,,,,,,68,R,ugm-3,,,
08-01-2008,22:00,,,,,,,,,,78,R,ugm-3,,,
08-01-2008,23:00,,,,,,,,,,78,R,ugm-3,,,
08-01-2008,24:00,,,,,,,,,,76,R,ugm-3,,,
09-01-2008,01:00,,,,,,,,,,74,R,ugm-3,,,
09-01-2008,02:00,,,,,,,,,,70,R,ugm-3,,,
09-01-2008,03:00,,,,,,,,,,70,R,ugm-3,,,
09-01-2008,04:00,,,,,,,,,,70,R,ugm-3,,,
09-01-2008,05:00,,,,,,,,,,68,R,ugm-3,,,
09-01-2008,06:00,,,,,,,,,,68,R,ugm-3,,,
09-01-2008,07:00,,,,,,,,,,66,R,ugm-3,,,
09-01-2008,08:00,,,,,,,,,,68,R,ugm-3,,,
09-01-2008,09:00,,,,,,,,,,68,R,ugm-3,,,
09-01-2008,10:00,,,,,,,,,,66,R,ugm-3,,,
09-01-2008,11:00,,,,,,,,,,68,R,ugm-3,,,
09-01-2008,12:00,,,,,,,,,,64,R,ugm-3,,,
09-01-2008,13:00,,,,,,,,,,60,R,ugm-3,,,
09-01-2008,14:00,,,,,,,,,,64,R,ugm-3,,,
09-01-2008,15:00,,,,,,,,,,66,R,ugm-3,,,
09-01-2008,16:00,,,,,,,,,,66,R,ugm-3,,,
09-01-2008,17:00,,,,,,,,,,62,R,ugm-3,,,
09-01-2008,18:00,,,,,,,,,,64,R,ugm-3,,,
09-01-2008,19:00,,,,,,,,,,66,R,ugm-3,,,
09-01-2008,20:00,,,,,,,,,,60,R,ugm-3,,,
09-01-2008,21:00,,,,,,,,,,48,R,ugm-3,,,
09-01-2008,22:00,,,,,,,,,,44,R,ugm-3,,,
09-01-2008,23:00,,,,,,,,,,60,R,ugm-3,,,
09-01-2008,24:00,,,,,,,,,,64,R,ugm-3,,,
10-01-2008,01:00,,,,,,,,,,66,R,ugm-3,,,
10-01-2008,02:00,,,,,,,,,,72,R,ugm-3,,,
10-01-2008,03:00,,,,,,,,,,74,R,ugm-3,,,
10-01-2008,04:00,,,,,,,,,,72,R,ugm-3,,,
10-01-2008,05:00,,,,,,,,,,70,R,ugm-3,,,
10-01-2008,06:00,,,,,,,,,,70,R,ugm-3,,,
10-01-2008,07:00,,,,,,,,,,68,R,ugm-3,,,
10-01-2008,08:00,,,,,,,,,,66,R,ugm-3,,,
10-01-2008,09:00,,,,,,,,,,68,R,ugm-3,,,
10-01-2008,10:00,,,,,,,,,,,,,,,
10-01-2008,11:00,,,,,,,,,,,,,,,
10-01-2008,12:00,,,,,,,,,,,,,,,
10-01-2008,13:00,,,,,,,,,,62,R,ugm-3,,,
10-01-2008,14:00,,,,,,,,,,62,R,ugm-3,,,
10-01-2008,15:00,,,,,,,,,,54,R,ugm-3,,,
10-01-2008,16:00,,,,,,,,,,54,R,ugm-3,,,
10-01-2008,17:00,,,,,,,,,,50,R,ugm-3,,,
10-01-2008,18:00,,,,,,,,,,54,R,ugm-3,,,
10-01-2008,19:00,,,,,,,,,,54,R,ugm-3,,,
10-01-2008,20:00,,,,,,,,,,56,R,ugm-3,,,
10-01-2008,21:00,,,,,,,,,,52,R,ugm-3,,,
10-01-2008,22:00,,,,,,,,,,50,R,ugm-3,,,
10-01-2008,23:00,,,,,,,,,,52,R,ugm-3,,,
10-01-2008,24:00,,,,,,,,,,52,R,ugm-3,,,
11-01-2008,01:00,,,,,,,,,,50,R,ugm-3,,,
11-01-2008,02:00,,,,,,,,,,52,R,ugm-3,,,
11-01-2008,03:00,,,,,,,,,,44,R,ugm-3,,,
11-01-2008,04:00,,,,,,,,,,50,R,ugm-3,,,
11-01-2008,05:00,,,,,,,,,,46,R,ugm-3,,,
11-01-2008,06:00,,,,,,,,,,36,R,ugm-3,,,
11-01-2008,07:00,,,,,,,,,,36,R,ugm-3,,,
11-01-2008,08:00,,,,,,,,,,44,R,ugm-3,,,
11-01-2008,09:00,,,,,,,,,,52,R,ugm-3,,,
11-01-2008,10:00,,,,,,,,,,56,R,ugm-3,,,
11-01-2008,11:00,,,,,,,,,,44,R,ugm-3,,,
11-01-2008,12:00,,,,,,,,,,28,R,ugm-3,,,
11-01-2008,13:00,,,,,,,,,,16,R,ugm-3,,,
11-01-2008,14:00,,,,,,,,,,24,R,ugm-3,,,
11-01-2008,15:00,,,,,,,,,,20,R,ugm-3,,,
11-01-2008,16:00,,,,,,,,,,26,R,ugm-3,,,
11-01-2008,17:00,,,,,,,,,,34,R,ugm-3,,,
11-01-2008,18:00,,,,,,,,,,38,R,ugm-3,,,
11-01-2008,19:00,,,,,,,,,,34,R,ugm-3,,,
11-01-2008,20:00,,,,,,,,,,42,R,ugm-3,,,
11-01-2008,21:00,,,,,,,,,,56,R,ugm-3,,,
11-01-2008,22:00,,,,,,,,,,56,R,ugm-3,,,
11-01-2008,23:00,,,,,,,,,,54,R,ugm-3,,,
11-01-2008,24:00,,,,,,,,,,56,R,ugm-3,,,
12-01-2008,01:00,,,,,,,,,,60,R,ugm-3,,,
12-01-2008,02:00,,,,,,,,,,40,R,ugm-3,,,
12-01-2008,03:00,,,,,,,,,,50,R,ugm-3,,,
12-01-2008,04:00,,,,,,,,,,58,R,ugm-3,,,
12-01-2008,05:00,,,,,,,,,,62,R,ugm-3,,,
12-01-2008,06:00,,,,,,,,,,60,R,ugm-3,,,
12-01-2008,07:00,,,,,,,,,,50,R,ugm-3,,,
12-01-2008,08:00,,,,,,,,,,54,R,ugm-3,,,
12-01-2008,09:00,,,,,,,,,,52,R,ugm-3,,,
12-01-2008,10:00,,,,,,,,,,54,R,ugm-3,,,
12-01-2008,11:00,,,,,,,,,,52,R,ugm-3,,,
12-01-2008,12:00,,,,,,,,,,54,R,ugm-3,,,
12-01-2008,13:00,,,,,,,,,,54,R,ugm-3,,,
12-01-2008,14:00,,,,,,,,,,58,R,ugm-3,,,
12-01-2008,15:00,,,,,,,,,,58,R,ugm-3,,,
12-01-2008,16:00,,,,,,,,,,54,R,ugm-3,,,
12-01-2008,17:00,,,,,,,,,,46,R,ugm-3,,,
12-01-2008,18:00,,,,,,,,,,42,R,ugm-3,,,
12-01-2008,19:00,,,,,,,,,,32,R,ugm-3,,,
12-01-2008,20:00,,,,,,,,,,24,R,ugm-3,,,
12-01-2008,21:00,,,,,,,,,,26,R,ugm-3,,,
12-01-2008,22:00,,,,,,,,,,42,R,ugm-3,,,
12-01-2008,23:00,,,,,,,,,,48,R,ugm-3,,,
12-01-2008,24:00,,,,,,,,,,46,R,ugm-3,,,
13-01-2008,01:00,,,,,,,,,,46,R,ugm-3,,,
13-01-2008,02:00,,,,,,,,,,48,R,ugm-3,,,
13-01-2008,03:00,,,,,,,,,,54,R,ugm-3,,,
13-01-2008,04:00,,,,,,,,,,58,R,ugm-3,,,
13-01-2008,05:00,,,,,,,,,,66,R,ugm-3,,,
13-01-2008,06:00,,,,,,,,,,68,R,ugm-3,,,
13-01-2008,07:00,,,,,,,,,,68,R,ugm-3,,,
13-01-2008,08:00,,,,,,,,,,68,R,ugm-3,,,
13-01-2008,09:00,,,,,,,,,,64,R,ugm-3,,,
13-01-2008,10:00,,,,,,,,,,66,R,ugm-3,,,
13-01-2008,11:00,,,,,,,,,,64,R,ugm-3,,,
13-01-2008,12:00,,,,,,,,,,62,R,ugm-3,,,
13-01-2008,13:00,,,,,,,,,,58,R,ugm-3,,,
13-01-2008,14:00,,,,,,,,,,58,R,ugm-3,,,
13-01-2008,15:00,,,,,,,,,,58,R,ugm-3,,,
13-01-2008,16:00,,,,,,,,,,56,R,ugm-3,,,
13-01-2008,17:00,,,,,,,,,,56,R,ugm-3,,,
13-01-2008,18:00,,,,,,,,,,60,R,ugm-3,,,
13-01-2008,19:00,,,,,,,,,,60,R,ugm-3,,,
13-01-2008,20:00,,,,,,,,,,58,R,ugm-3,,,
13-01-2008,21:00,,,,,,,,,,58,R,ugm-3,,,
13-01-2008,22:00,,,,,,,,,,58,R,ugm-3,,,
13-01-2008,23:00,,,,,,,,,,60,R,ugm-3,,,
13-01-2008,24:00,,,,,,,,,,58,R,ugm-3,,,
14-01-2008,01:00,,,,,,,,,,62,R,ugm-3,,,
14-01-2008,02:00,,,,,,,,,,64,R,ugm-3,,,
14-01-2008,03:00,,,,,,,,,,64,R,ugm-3,,,
14-01-2008,04:00,,,,,,,,,,62,R,ugm-3,,,
14-01-2008,05:00,,,,,,,,,,58,R,ugm-3,,,
14-01-2008,06:00,,,,,,,,,,52,R,ugm-3,,,
14-01-2008,07:00,,,,,,,,,,48,R,ugm-3,,,
14-01-2008,08:00,,,,,,,,,,50,R,ugm-3,,,
14-01-2008,09:00,,,,,,,,,,48,R,ugm-3,,,
14-01-2008,10:00,,,,,,,,,,54,R,ugm-3,,,
14-01-2008,11:00,,,,,,,,,,60,R,ugm-3,,,
14-01-2008,12:00,,,,,,,,,,62,R,ugm-3,,,
14-01-2008,13:00,,,,,,,,,,60,R,ugm-3,,,
14-01-2008,14:00,,,,,,,,,,60,R,ugm-3,,,
14-01-2008,15:00,,,,,,,,,,64,R,ugm-3,,,
14-01-2008,16:00,,,,,,,,,,66,R,ugm-3,,,
14-01-2008,17:00,,,,,,,,,,64,R,ugm-3,,,
14-01-2008,18:00,,,,,,,,,,62,R,ugm-3,,,
14-01-2008,19:00,,,,,,,,,,62,R,ugm-3,,,
14-01-2008,20:00,,,,,,,,,,62,R,ugm-3,,,
14-01-2008,21:00,,,,,,,,,,64,R,ugm-3,,,
14-01-2008,22:00,,,,,,,,,,64,R,ugm-3,,,
14-01-2008,23:00,,,,,,,,,,68,R,ugm-3,,,
14-01-2008,24:00,,,,,,,,,,66,R,ugm-3,,,
15-01-2008,01:00,,,,,,,,,,64,R,ugm-3,,,
15-01-2008,02:00,,,,,,,,,,62,R,ugm-3,,,
15-01-2008,03:00,,,,,,,,,,60,R,ugm-3,,,
15-01-2008,04:00,,,,,,,,,,66,R,ugm-3,,,
15-01-2008,05:00,,,,,,,,,,68,R,ugm-3,,,
15-01-2008,06:00,,,,,,,,,,66,R,ugm-3,,,
15-01-2008,07:00,,,,,,,,,,66,R,ugm-3,,,
15-01-2008,08:00,,,,,,,,,,64,R,ugm-3,,,
15-01-2008,09:00,,,,,,,,,,54,R,ugm-3,,,
15-01-2008,10:00,,,,,,,,,,48,R,ugm-3,,,
15-01-2008,11:00,,,,,,,,,,54,R,ugm-3,,,
15-01-2008,12:00,,,,,,,,,,60,R,ugm-3,,,
15-01-2008,13:00,,,,,,,,,,26,R,ugm-3,,,
15-01-2008,14:00,,,,,,,,,,44,R,ugm-3,,,
15-01-2008,15:00,,,,,,,,,,60,R,ugm-3,,,
15-01-2008,16:00,,,,,,,,,,72,R,ugm-3,,,
15-01-2008,17:00,,,,,,,,,,60,R,ugm-3,,,
15-01-2008,18:00,,,,,,,,,,40,R,ugm-3,,,
15-01-2008,19:00,,,,,,,,,,34,R,ugm-3,,,
15-01-2008,20:00,,,,,,,,,,50,R,ugm-3,,,
15-01-2008,21:00,,,,,,,,,,52,R,ugm-3,,,
15-01-2008,22:00,,,,,,,,,,48,R,ugm-3,,,
15-01-2008,23:00,,,,,,,,,,58,R,ugm-3,,,
15-01-2008,24:00,,,,,,,,,,72,R,ugm-3,,,
16-01-2008,01:00,,,,,,,,,,74,R,ugm-3,,,
16-01-2008,02:00,,,,,,,,,,74,R,ugm-3,,,
16-01-2008,03:00,,,,,,,,,,64,R,ugm-3,,,
16-01-2008,04:00,,,,,,,,,,62,R,ugm-3,,,
16-01-2008,05:00,,,,,,,,,,56,R,ugm-3,,,
16-01-2008,06:00,,,,,,,,,,56,R,ugm-3,,,
16-01-2008,07:00,,,,,,,,,,54,R,ugm-3,,,
16-01-2008,08:00,,,,,,,,,,50,R,ugm-3,,,
16-01-2008,09:00,,,,,,,,,,44,R,ugm-3,,,
16-01-2008,10:00,,,,,,,,,,46,R,ugm-3,,,
16-01-2008,11:00,,,,,,,,,,50,R,ugm-3,,,
16-01-2008,12:00,,,,,,,,,,,,,,,
16-01-2008,13:00,,,,,,,,,,,,,,,
16-01-2008,14:00,,,,,,,,,,,,,,,
16-01-2008,15:00,,,,,,,,,,,,,,,
16-01-2008,16:00,,,,,,,,,,,,,,,
16-01-2008,17:00,,,,,,,,,,,,,,,
16-01-2008,18:00,,,,,,,,,,,,,,,
16-01-2008,19:00,,,,,,,,,,,,,,,
16-01-2008,20:00,,,,,,,,,,,,,,,
16-01-2008,21:00,,,,,,,,,,,,,,,
16-01-2008,22:00,,,,,,,,,,,,,,,
16-01-2008,23:00,,,,,,,,,,,,,,,
16-01-2008,24:00,,,,,,,,,,,,,,,
17-01-2008,01:00,,,,,,,,,,,,,,,
17-01-2008,02:00,,,,,,,,,,,,,,,
17-01-2008,03:00,,,,,,,,,,,,,,,
17-01-2008,04:00,,,,,,,,,,,,,,,
17-01-2008,05:00,,,,,,,,,,,,,,,
17-01-2008,06:00,,,,,,,,,,,,,,,
17-01-2008,07:00,,,,,,,,,,,,,,,
17-01-2008,08:00,,,,,,,,,,,,,,,
17-01-2008,09:00,,,,,,,,,,,,,,,
17-01-2008,10:00,,,,,,,,,,,,,,,
17-01-2008,11:00,,,,,,,,,,,,,,,
17-01-2008,12:00,,,,,,,,,,,,,,,
17-01-2008,13:00,,,,,,,,,,,,,,,
17-01-2008,14:00,,,,,,,,,,,,,,,
17-01-2008,15:00,,,,,,,,,,,,,,,
17-01-2008,16:00,1.4,R,ugm-3,5.9,R,ugm-3,8.0,R,ugm-3,58,R,ugm-3,,,
17-01-2008,17:00,0.4,R,ugm-3,7.4,R,ugm-3,8.0,R,ugm-3,58,R,ugm-3,,,
17-01-2008,18:00,0.0,R,ugm-3,7.1,R,ugm-3,7.1,R,ugm-3,56,R,ugm-3,,,
17-01-2008,19:00,0.8,R,ugm-3,3.4,R,ugm-3,4.6,R,ugm-3,56,R,ugm-3,,,
17-01-2008,20:00,1.4,R,ugm-3,2.9,R,ugm-3,5.0,R,ugm-3,56,R,ugm-3,,,
17-01-2008,21:00,1.4,R,ugm-3,9.0,R,ugm-3,11.1,R,ugm-3,50,R,ugm-3,,,
17-01-2008,22:00,1.4,R,ugm-3,8.0,R,ugm-3,10.1,R,ugm-3,50,R,ugm-3,,,
17-01-2008,23:00,1.4,R,ugm-3,4.0,R,ugm-3,6.1,R,ugm-3,54,R,ugm-3,,,
17-01-2008,24:00,1.0,R,ugm-3,4.6,R,ugm-3,6.1,R,ugm-3,52,R,ugm-3,,,
18-01-2008,01:00,1.4,R,ugm-3,4.6,R,ugm-3,6.7,R,ugm-3,52,R,ugm-3,,,
18-01-2008,02:00,0.9,R,ugm-3,4.8,R,ugm-3,6.1,R,ugm-3,54,R,ugm-3,,,
18-01-2008,03:00,0.8,R,ugm-3,5.2,R,ugm-3,6.3,R,ugm-3,52,R,ugm-3,,,
18-01-2008,04:00,1.4,R,ugm-3,4.0,R,ugm-3,6.1,R,ugm-3,56,R,ugm-3,,,
18-01-2008,05:00,1.4,R,ugm-3,4.0,R,ugm-3,6.1,R,ugm-3,52,R,ugm-3,,,
18-01-2008,06:00,1.4,R,ugm-3,4.0,R,ugm-3,6.1,R,ugm-3,52,R,ugm-3,,,
18-01-2008,07:00,1.4,R,ugm-3,4.0,R,ugm-3,6.1,R,ugm-3,54,R,ugm-3,,,
18-01-2008,08:00,1.0,R,ugm-3,4.6,R,ugm-3,6.1,R,ugm-3,52,R,ugm-3,,,
18-01-2008,09:00,0.8,R,ugm-3,5.5,R,ugm-3,6.7,R,ugm-3,54,R,ugm-3,,,
18-01-2008,10:00,1.0,R,ugm-3,9.6,R,ugm-3,11.1,R,ugm-3,46,R,ugm-3,,,
18-01-2008,11:00,1.4,R,ugm-3,7.4,R,ugm-3,9.6,R,ugm-3,48,R,ugm-3,,,
18-01-2008,12:00,1.4,R,ugm-3,4.6,R,ugm-3,6.7,R,ugm-3,50,R,ugm-3,,,
18-01-2008,13:00,1.4,R,ugm-3,4.0,R,ugm-3,6.1,R,ugm-3,52,R,ugm-3,,,
18-01-2008,14:00,1.0,R,ugm-3,4.6,R,ugm-3,6.1,R,ugm-3,52,R,ugm-3,,,
18-01-2008,15:00,1.0,R,ugm-3,4.6,R,ugm-3,6.1,R,ugm-3,54,R,ugm-3,,,
18-01-2008,16:00,1.0,R,ugm-3,4.0,R,ugm-3,5.5,R,ugm-3,54,R,ugm-3,,,
18-01-2008,17:00,1.4,R,ugm-3,4.0,R,ugm-3,6.1,R,ugm-3,54,R,ugm-3,,,
18-01-2008,18:00,1.0,R,ugm-3,4.6,R,ugm-3,6.1,R,ugm-3,56,R,ugm-3,,,
18-01-2008,19:00,1.4,R,ugm-3,4.0,R,ugm-3,6.1,R,ugm-3,54,R,ugm-3,,,
18-01-2008,20:00,1.0,R,ugm-3,4.0,R,ugm-3,5.5,R,ugm-3,56,R,ugm-3,,,
18-01-2008,21:00,1.4,R,ugm-3,4.0,R,ugm-3,6.1,R,ugm-3,58,R,ugm-3,,,
18-01-2008,22:00,0.4,R,ugm-3,5.5,R,ugm-3,6.1,R,ugm-3,62,R,ugm-3,,,
18-01-2008,23:00,1.0,R,ugm-3,4.6,R,ugm-3,6.1,R,ugm-3,60,R,ugm-3,,,
18-01-2008,24:00,1.4,R,ugm-3,2.5,R,ugm-3,4.6,R,ugm-3,64,R,ugm-3,,,
19-01-2008,01:00,0.9,R,ugm-3,4.8,R,ugm-3,6.1,R,ugm-3,64,R,ugm-3,,,
19-01-2008,02:00,1.4,R,ugm-3,4.0,R,ugm-3,6.1,R,ugm-3,62,R,ugm-3,,,
19-01-2008,03:00,0.8,R,ugm-3,5.2,R,ugm-3,6.3,R,ugm-3,62,R,ugm-3,,,
19-01-2008,04:00,1.4,R,ugm-3,5.9,R,ugm-3,8.0,R,ugm-3,64,R,ugm-3,,,
19-01-2008,05:00,1.4,R,ugm-3,4.0,R,ugm-3,6.1,R,ugm-3,64,R,ugm-3,,,
19-01-2008,06:00,1.4,R,ugm-3,4.0,R,ugm-3,6.1,R,ugm-3,64,R,ugm-3,,,
19-01-2008,07:00,1.0,R,ugm-3,4.6,R,ugm-3,6.1,R,ugm-3,64,R,ugm-3,,,
19-01-2008,08:00,1.0,R,ugm-3,3.4,R,ugm-3,5.0,R,ugm-3,66,R,ugm-3,,,
19-01-2008,09:00,1.4,R,ugm-3,5.9,R,ugm-3,8.0,R,ugm-3,64,R,ugm-3,,,
19-01-2008,10:00,1.4,R,ugm-3,5.9,R,ugm-3,8.0,R,ugm-3,62,R,ugm-3,,,
19-01-2008,11:00,2.0,R,ugm-3,7.4,R,ugm-3,10.5,R,ugm-3,62,R,ugm-3,,,
19-01-2008,12:00,1.4,R,ugm-3,6.5,R,ugm-3,8.6,R,ugm-3,64,R,ugm-3,,,
19-01-2008,13:00,2.4,R,ugm-3,7.1,R,ugm-3,10.7,R,ugm-3,60,R,ugm-3,,,
19-01-2008,14:00,1.8,R,ugm-3,5.5,R,ugm-3,8.2,R,ugm-3,62,R,ugm-3,,,
19-01-2008,15:00,1.4,R,ugm-3,11.1,R,ugm-3,13.2,R,ugm-3,58,R,ugm-3,,,
19-01-2008,16:00,1.4,R,ugm-3,9.9,R,ugm-3,12.0,R,ugm-3,56,R,ugm-3,,,
19-01-2008,17:00,1.4,R,ugm-3,10.5,R,ugm-3,12.6,R,ugm-3,52,R,ugm-3,,,
19-01-2008,18:00,1.4,R,ugm-3,12.0,R,ugm-3,14.1,R,ugm-3,50,R,ugm-3,,,
19-01-2008,19:00,1.4,R,ugm-3,9.6,R,ugm-3,11.7,R,ugm-3,50,R,ugm-3,,,
19-01-2008,20:00,1.0,R,ugm-3,13.6,R,ugm-3,15.1,R,ugm-3,38,R,ugm-3,,,
19-01-2008,21:00,1.4,R,ugm-3,13.6,R,ugm-3,15.7,R,ugm-3,38,R,ugm-3,,,
19-01-2008,22:00,0.8,R,ugm-3,12.0,R,ugm-3,13.2,R,ugm-3,38,R,ugm-3,,,
19-01-2008,23:00,1.0,R,ugm-3,10.1,R,ugm-3,11.7,R,ugm-3,38,R,ugm-3,,,
19-01-2008,24:00,1.4,R,ugm-3,1.9,R,ugm-3,4.0,R,ugm-3,52,R,ugm-3,,,
20-01-2008,01:00,1.4,R,ugm-3,1.9,R,ugm-3,4.0,R,ugm-3,50,R,ugm-3,,,
20-01-2008,02:00,0.9,R,ugm-3,0.8,R,ugm-3,2.1,R,ugm-3,50,R,ugm-3,,,
20-01-2008,03:00,1.4,R,ugm-3,0.0,R,ugm-3,2.1,R,ugm-3,52,R,ugm-3,,,
20-01-2008,04:00,1.4,R,ugm-3,0.0,R,ugm-3,2.1,R,ugm-3,52,R,ugm-3,,,
20-01-2008,05:00,1.0,R,ugm-3,0.6,R,ugm-3,2.1,R,ugm-3,52,R,ugm-3,,,
20-01-2008,06:00,0.8,R,ugm-3,1.1,R,ugm-3,2.3,R,ugm-3,52,R,ugm-3,,,
20-01-2008,07:00,1.0,R,ugm-3,0.6,R,ugm-3,2.1,R,ugm-3,52,R,ugm-3,,,
20-01-2008,08:00,1.0,R,ugm-3,0.6,R,ugm-3,2.1,R,ugm-3,52,R,ugm-3,,,
20-01-2008,09:00,0.8,R,ugm-3,1.1,R,ugm-3,2.3,R,ugm-3,52,R,ugm-3,,,
20-01-2008,10:00,1.4,R,ugm-3,1.0,R,ugm-3,3.1,R,ugm-3,52,R,ugm-3,,,
20-01-2008,11:00,1.4,R,ugm-3,3.1,R,ugm-3,5.2,R,ugm-3,52,R,ugm-3,,,
20-01-2008,12:00,1.4,R,ugm-3,4.0,R,ugm-3,6.1,R,ugm-3,54,R,ugm-3,,,
20-01-2008,13:00,1.4,R,ugm-3,4.0,R,ugm-3,6.1,R,ugm-3,60,R,ugm-3,,,
20-01-2008,14:00,1.0,R,ugm-3,5.0,R,ugm-3,6.5,R,ugm-3,62,R,ugm-3,,,
20-01-2008,15:00,1.4,R,ugm-3,5.0,R,ugm-3,7.1,R,ugm-3,62,R,ugm-3,,,
20-01-2008,16:00,1.4,R,ugm-3,4.0,R,ugm-3,6.1,R,ugm-3,62,R,ugm-3,,,
20-01-2008,17:00,1.4,R,ugm-3,4.0,R,ugm-3,6.1,R,ugm-3,60,R,ugm-3,,,
20-01-2008,18:00,1.0,R,ugm-3,4.6,R,ugm-3,6.1,R,ugm-3,58,R,ugm-3,,,
20-01-2008,19:00,1.4,R,ugm-3,4.0,R,ugm-3,6.1,R,ugm-3,54,R,ugm-3,,,
20-01-2008,20:00,1.4,R,ugm-3,4.0,R,ugm-3,6.1,R,ugm-3,56,R,ugm-3,,,
20-01-2008,21:00,1.4,R,ugm-3,6.1,R,ugm-3,8.2,R,ugm-3,54,R,ugm-3,,,
20-01-2008,22:00,1.0,R,ugm-3,4.6,R,ugm-3,6.1,R,ugm-3,58,R,ugm-3,,,
20-01-2008,23:00,1.4,R,ugm-3,4.0,R,ugm-3,6.1,R,ugm-3,58,R,ugm-3,,,
20-01-2008,24:00,1.4,R,ugm-3,4.0,R,ugm-3,6.1,R,ugm-3,56,R,ugm-3,,,
21-01-2008,01:00,0.9,R,ugm-3,4.8,R,ugm-3,6.1,R,ugm-3,50,R,ugm-3,,,
21-01-2008,02:00,1.4,R,ugm-3,4.0,R,ugm-3,6.1,R,ugm-3,46,R,ugm-3,,,
21-01-2008,03:00,1.4,R,ugm-3,4.0,R,ugm-3,6.1,R,ugm-3,42,R,ugm-3,,,
21-01-2008,04:00,1.4,R,ugm-3,8.0,R,ugm-3,10.1,R,ugm-3,36,R,ugm-3,,,
21-01-2008,05:00,1.4,R,ugm-3,7.1,R,ugm-3,9.2,R,ugm-3,36,R,ugm-3,,,
21-01-2008,06:00,1.0,R,ugm-3,1.5,R,ugm-3,3.1,R,ugm-3,52,R,ugm-3,,,
21-01-2008,07:00,1.4,R,ugm-3,0.0,R,ugm-3,2.1,R,ugm-3,58,R,ugm-3,,,
21-01-2008,08:00,1.4,R,ugm-3,1.0,R,ugm-3,3.1,R,ugm-3,58,R,ugm-3,,,
21-01-2008,09:00,1.4,R,ugm-3,1.9,R,ugm-3,4.0,R,ugm-3,56,R,ugm-3,,,
21-01-2008,10:00,0.8,R,ugm-3,4.0,R,ugm-3,5.2,R,ugm-3,52,R,ugm-3,,,
21-01-2008,11:00,1.4,R,ugm-3,4.0,R,ugm-3,6.1,R,ugm-3,54,R,ugm-3,,,
21-01-2008,12:00,1.4,R,ugm-3,3.1,R,ugm-3,5.2,R,ugm-3,56,R,ugm-3,,,
21-01-2008,13:00,1.4,R,ugm-3,2.5,R,ugm-3,4.6,R,ugm-3,64,R,ugm-3,,,
21-01-2008,14:00,1.4,R,ugm-3,3.1,R,ugm-3,5.2,R,ugm-3,66,R,ugm-3,,,
21-01-2008,15:00,1.4,R,ugm-3,3.4,R,ugm-3,5.5,R,ugm-3,66,R,ugm-3,,,
21-01-2008,16:00,1.4,R,ugm-3,1.9,R,ugm-3,4.0,R,ugm-3,68,R,ugm-3,,,
21-01-2008,17:00,1.0,R,ugm-3,3.4,R,ugm-3,5.0,R,ugm-3,70,R,ugm-3,,,
21-01-2008,18:00,1.4,R,ugm-3,6.5,R,ugm-3,8.6,R,ugm-3,62,R,ugm-3,,,
21-01-2008,19:00,1.4,R,ugm-3,10.1,R,ugm-3,12.2,R,ugm-3,54,R,ugm-3,,,
21-01-2008,20:00,1.4,R,ugm-3,7.1,R,ugm-3,9.2,R,ugm-3,56,R,ugm-3,,,
21-01-2008,21:00,1.4,R,ugm-3,4.0,R,ugm-3,6.1,R,ugm-3,60,R,ugm-3,,,
21-01-2008,22:00,1.4,R,ugm-3,4.0,R,ugm-3,6.1,R,ugm-3,64,R,ugm-3,,,
21-01-2008,23:00,1.4,R,ugm-3,3.1,R,ugm-3,5.2,R,ugm-3,62,R,ugm-3,,,
21-01-2008,24:00,1.4,R,ugm-3,4.0,R,ugm-3,6.1,R,ugm-3,62,R,ugm-3,,,
22-01-2008,01:00,1.4,R,ugm-3,2.7,R,ugm-3,4.8,R,ugm-3,64,R,ugm-3,,,
22-01-2008,02:00,1.4,R,ugm-3,0.0,R,ugm-3,2.1,R,ugm-3,60,R,ugm-3,,,
22-01-2008,03:00,1.4,R,ugm-3,0.0,R,ugm-3,2.1,R,ugm-3,60,R,ugm-3,,,
22-01-2008,04:00,1.4,R,ugm-3,0.0,R,ugm-3,2.1,R,ugm-3,62,R,ugm-3,,,
22-01-2008,05:00,1.4,R,ugm-3,4.0,R,ugm-3,6.1,R,ugm-3,54,R,ugm-3,,,
22-01-2008,06:00,1.4,R,ugm-3,3.4,R,ugm-3,5.5,R,ugm-3,56,R,ugm-3,,,
22-01-2008,07:00,1.4,R,ugm-3,3.1,R,ugm-3,5.2,R,ugm-3,52,R,ugm-3,,,
22-01-2008,08:00,1.0,R,ugm-3,1.9,R,ugm-3,3.4,R,ugm-3,42,R,ugm-3,,,
22-01-2008,09:00,1.4,R,ugm-3,2.5,R,ugm-3,4.6,R,ugm-3,48,R,ugm-3,,,
22-01-2008,10:00,2.0,R,ugm-3,3.6,R,ugm-3,6.7,R,ugm-3,42,R,ugm-3,,,
22-01-2008,11:00,2.6,R,ugm-3,7.1,R,ugm-3,11.1,R,ugm-3,36,R,ugm-3,,,
22-01-2008,12:00,3.0,R,ugm-3,16.6,R,ugm-3,21.2,R,ugm-3,32,R,ugm-3,,,
22-01-2008,13:00,2.6,R,ugm-3,10.7,R,ugm-3,14.7,R,ugm-3,32,R,ugm-3,,,
22-01-2008,14:00,2.6,R,ugm-3,15.7,R,ugm-3,19.7,R,ugm-3,38,R,ugm-3,,,